Location: Blandford
(50.8667°N, 2.1667°W)
Time: 06:25:21
(UTC+00:00)

ATLAS CENTAUR R/B - Pass Details

Date: 09 April 2020
Orbit: 466 x 681 km, 64.7° (Epoch: 26 May)

Event Time Altitude Azimuth Distance (km) Brightness Sun altitude
Rises 21:53:02 0° 317° (NW) 2,675 6.2 -24.1°
Reaches altitude 10° 21:55:18 10° 314° (NW) 1,748 4.9 -24.3°
Enters shadow 21:58:21 49° 289° (WNW) 650 1.9 -24.6°
